This is the latest recevied weather packets stored in our database for station/object EW1958. If no packets are shown the sender has not sent any weather packets the latest 10 day(s).
| Time | Temp. | Humidity | Pressure | Rain* | Wind** | Luminosity | Snow |
|---|---|---|---|---|---|---|---|
| 1788113178 | 14.44° C | 88% | 1023 hPa | 0 mm | - | - | - |
| 1788112874 | 14.44° C | 85% | 1023 hPa | 0 mm | - | - | - |
| 1788112725 | 14.44° C | 86% | 1023.1 hPa | 0 mm | - | - | - |
| 1788112269 | 14.44° C | 90% | 1023.2 hPa | 0 mm | - | - | - |
| 1788111968 | 14.44° C | 88% | 1023.1 hPa | 0 mm | - | - | - |
| 1788111666 | 14.44° C | 89% | 1023.1 hPa | 0 mm | - | - | - |
| 1788111365 | 14.44° C | 86% | 1023.2 hPa | 0 mm | - | - | - |
| 1788111062 | 14.44° C | 90% | 1023.2 hPa | 0 mm | - | - | - |
| 1788110763 | 14.44° C | 88% | 1023.3 hPa | 0 mm | - | - | - |
| 1788110586 | 14.44° C | 91% | 1023.2 hPa | 0 mm | - | - | - |
| 1788110163 | 13.89° C | 92% | 1023.1 hPa | 0 mm | - | - | - |
| 1788109861 | 13.89° C | 91% | 1023.1 hPa | 0 mm | - | - | - |
| 1788109572 | 13.89° C | 92% | 1023.1 hPa | 0 mm | - | - | - |
| 1788108962 | 13.89° C | 94% | 1023 hPa | 0 mm | - | - | - |
| 1788108661 | 13.89° C | 94% | 1023.1 hPa | 0 mm | - | - | - |
| 1788108360 | 13.89° C | 94% | 1023 hPa | 0 mm | - | - | - |
| 1788108060 | 13.89° C | 95% | 1023 hPa | 0 mm | - | - | - |
| 1788107765 | 13.89° C | 95% | 1023 hPa | 0 mm | - | - | - |
| 1788107158 | 13.33° C | 96% | 1023.1 hPa | 0 mm | - | - | - |
| 1788106856 | 13.33° C | 96% | 1023.1 hPa | 0 mm | - | - | - |
| 1788106680 | 13.33° C | 96% | 1023.1 hPa | 0 mm | - | - | - |
| 1788106405 | 13.33° C | 96% | 1023.1 hPa | 0 mm | - | - | - |
| 1788105956 | 13.33° C | 96% | 1023.1 hPa | 0 mm | - | - | - |
| 1788105656 | 13.33° C | 96% | 1023.2 hPa | 0 mm | - | - | - |
| 1788105476 | 12.78° C | 96% | 1023 hPa | 0 mm | - | - | - |
* Rain latest hour (hover to see other rain measurements)
** Current wind speed in m/s (hover to see current wind gust speed)